Regional Weather Roundup
Issued by NWS

Home | Current Version | Previous Version | Graphics & Text | Print | Product List | Glossary On
Versions: 1 2 3 4 5 6 7 8 9 10 11 12 13 14 15 16 17 18 19 20 21 22 23 24 25 26 27 28 29 30 31 32 33 34 35 36 37 38 39 40 41 42 43 44 45 46 47 48 49 50
000
ASUS43 KFSD 242002
RWRSD

WEATHER ROUNDUP FOR SOUTH DAKOTA
NATIONAL WEATHER SERVICE SIOUX FALLS SD
300 PM CDT SAT SEP 24 2016

NOTE: "FAIR" INDICATES FEW OR NO CLOUDS BELOW 12,000 FEET WITH NO
SIGNIFICANT WEATHER AND/OR OBSTRUCTIONS TO VISIBILITY.


SDZ001>005-009-010-012>017-242100-
NORTHWEST AND NORTH CENTRAL SOUTH DAKOTA

CITY           SKY/WX    TMP DP  RH WIND       PRES   REMARKS
BUFFALO          N/A     62  50  64 SW23      29.67S
FAITH            N/A     68  50  52 SW14G21   29.76F
MOBRIDGE       SUNNY     77  49  37 S18G26    29.73F
$$

SDZ012>016-024>037-041>051-057-063-072>074-242100-
SOUTHWEST AND SOUTH CENTRAL SOUTH DAKOTA

CITY           SKY/WX    TMP DP  RH WIND       PRES   REMARKS
RAPID CTY ARPT MOSUNNY   66  43  43 W17G23    29.83F
PIERRE         SUNNY     75  45  34 SW20G29   29.78F
CUSTER         CLOUDY    45  40  82 W18G32    29.92R
ELLSWORTH AFB  SUNNY     66  44  44 W14G23    29.83S
PHILIP         SUNNY     73  44  35 SW25G36   29.81F
PINE RIDGE     MOSUNNY   68  40  35 W18G24    29.90F
WINNER         FAIR      79  43  27 SW20G25   29.84F
$$

SDZ004>011-016>023-039-040-242100-
NORTHEAST SOUTH DAKOTA

CITY           SKY/WX    TMP DP  RH WIND       PRES   REMARKS
ABERDEEN       CLOUDY    78  65  63 S17G23    29.78F
WATERTOWN      LGT RAIN  76  69  79 S13       29.84F
SISSETON         N/A     79  68  69 S18G24    29.80F
$$

SDZ017-020-022-023-036>040-048>070-242100-
SOUTHEAST SOUTH DAKOTA

CITY           SKY/WX    TMP DP  RH WIND       PRES   REMARKS
SIOUX FALLS    TSTM      67  64  90 SW17G24   29.91R FOG
HURON          CLOUDY    77  65  66 S15G21    29.79F
CHAMBERLAIN    CLOUDY    78  50  37 SW10G18   29.83F
MITCHELL       CLOUDY    74  69  85 VRB3      29.81F
YANKTON        CLOUDY    68  64  88 SE10      29.86R
$$

ABBREVIATIONS USED IN REMARKS
   TC - TEMPERATURE IN CELSIUS
  WCI - WIND CHILL INDEX
   HX - HEAT INDEX
  VSB - VISIBILITY




USA.gov is the U.S. government's official web portal to all federal, state and local government web resources and services.